Hourly Data Report for October 06, 2016

All times are specified in Local Standard Time (LST). Add 1 hour to adjust for Daylight Saving Time where and when it is observed.

ST LEONARD CS
NEW BRUNSWICK

47°09'28.050" N
67°49'55.014" W
245.00 m
810I001
71019
WIY

Download Data

Hourly Data (October 2016)
Hourly Data Report for October 6, 2016
Temp Definition
°C
Dew Point Temp Definition
°C
Rel Hum Definition
%
Wind Dir Definition
10's deg

Wind Spd Definition
km/h
Visibility Definition
km
Stn Press Definition
kPa
Hmdx Definition


Wind Chill Definition


Weather Definition


TIME
00:00 5.0 3.8 92 19 1   99.44     LegendNANA
01:00 3.8 3.2 96 14 4   99.45     LegendNANA
02:00 3.1 2.5 96   0   99.45     LegendNANA
03:00 2.6 2.0 96 35 3   99.47     LegendNANA
04:00 2.2 1.8 97 19 3   99.47     LegendNANA
05:00 1.7 1.5 99 11 4   99.46     LegendNANA
06:00 1.3 1.2 99 2 1   99.46     LegendNANA
07:00 1.1 1.0 99 13 2   99.48     LegendNANA
08:00 3.3 3.1 99 19 2   99.47     LegendNANA
09:00 5.2 5.0 98 19 1   99.49     LegendNANA
10:00 9.4 9.0 98 26 2   99.47     LegendNANA
11:00 12.6 8.4 75 24 4   99.41     LegendNANA
12:00 15.3 9.8 70 24 8   99.37     LegendNANA
13:00 17.1 9.8 62 25 8   99.30     LegendNANA
14:00 18.3 10.2 59 28 11   99.24     LegendNANA
15:00 19.1 9.2 53 25 13   99.23     LegendNANA
16:00 19.8 9.6 52 26 13   99.21     LegendNANA
17:00 19.2 9.3 53 27 11   99.26     LegendNANA
18:00 16.5 9.6 64 21 6   99.26     LegendNANA
19:00 12.4 9.5 83 16 7   99.28     LegendNANA
20:00 13.3 10.5 83 17 4   99.31     LegendNANA
21:00 11.7 8.8 82 20 2   99.34     LegendNANA
22:00 10.4 8.1 86 22 5   99.37     LegendNANA
23:00 13.1 9.5 78 28 10   99.37     LegendNANA

Notes on Data Quality.

Legend

  • E = Estimated
  • M = Missing
  • NA = Not Available
  • ‡ = Partner data that is not subject to review by the National Climate Archives
Date modified: